This demonstration page uses our WeatherBlox Daily Observations layout. Learn more.

Left ArrowRight Arrow

Hourly Observations for October 31, 2018

Temp ( °F °C ) Dew Point ( °F °C ) Humidity (%) Winds ( mph kmh ) Pressure ( in mb ) Visibility ( mi km ) Precip ( " mm )
12:53 am 00:53 Mostly Cloudy 61 16.1 49 9.4 65 65 ESE 8 13 29.78 1009 10 16 0.00 0.00
1:53 am 01:53 Partly Cloudy 59 15 50 10 72 72 N 5 7 29.78 1009 10 16 0.00 0.00
2:53 am 02:53 Mostly Cloudy with Light Rain 59 15 55 12.8 87 87 NNE 5 7 29.76 1008 10 16 0.00 0.03
3:53 am 03:53 Partly Cloudy 62 16.7 60 15.6 93 93 SE 15 24 29.72 1007 8 13 0.00 0.03
4:53 am 04:53 Mostly Cloudy 61 16.1 60 15.6 97 97 NNW 3 6 29.73 1007 7 11 0.00 0.00
5:53 am 05:53 Clear 57 13.9 55 12.8 93 93 N 6 9 29.74 1007 10 16 0.00 0.00
6:24 am 06:24 Mostly Cloudy 57 13.9 54 12.2 90 90 NNW 9 15 29.83 1010 10 16 0.00 0.00
6:53 am 06:53 Cloudy 58 14.4 54 12.2 87 87 WNW 8 13 29.78 1008 10 16 0.00 0.00
7:23 am 07:23 Cloudy with Nearby Thunderstorms 57 13.9 55 12.8 93 93 NNW 13 20 29.85 1011 10 16 0.01 0.25
7:53 am 07:53 Cloudy 55 12.8 54 12.2 96 96 N 6 9 29.81 1010 10 16 0.01 0.25
8:53 am 08:53 Cloudy with Light Rain 56 13.3 55 12.8 97 97 S 7 11 29.81 1010 9 14 0.02 0.51
9:53 am 09:53 Cloudy with Light Rain 57 13.9 56 13.3 96 96 N 17 28 29.86 1011 8 13 0.01 0.25
10:12 am 10:12 Cloudy with Light Rain 56 13.3 55 12.8 97 97 N 12 19 29.88 1012 10 16 0.01 0.25
10:27 am 10:27 Cloudy with Light Rain 54 12.2 53 11.7 97 97 N 14 22 29.94 1014 10 16 0.01 0.25
10:46 am 10:46 Cloudy with Light Rain 54 12.2 52 11.1 93 93 N 10 17 29.94 1014 10 16 0.02 0.51
10:53 am 10:53 Cloudy with Rain 53 11.7 52 11.1 96 96 NNE 12 19 29.91 1013 6 10 0.04 1.02
11:13 am 11:13 Cloudy with Heavy Rain 52 11.1 51 10.6 97 97 N 9 15 30.00 1016 2 3 0.09 2.29
11:21 am 11:21 Cloudy with Rain 52 11.1 51 10.6 97 97 ENE 13 20 29.94 1014 2 3 0.13 3.30
11:28 am 11:28 Cloudy with Rain 52 11.1 51 10.6 97 97 E 13 20 29.91 1013 4 6 0.14 3.56
11:53 am 11:53 Cloudy with Light Rain 52 11.1 51 10.6 97 97 NNE 15 24 29.89 1012 10 16 0.15 3.81
12:00 pm 12:00 Cloudy 52 11.1 51 10.6 97 97 NNE 14 22 29.94 1014 10 16 0.00 0.03
12:09 pm 12:09 Cloudy 52 11.1 51 10.6 97 97 N 15 24 29.94 1014 10 16 0.00 0.03
12:46 pm 12:46 Mostly Cloudy 52 11.1 50 10 93 93 NE 14 22 29.91 1013 10 16 0.00 0.03
12:53 pm 12:53 Cloudy 52 11.1 50 10 93 93 ENE 13 20 29.87 1012 10 16 0.00 0.03
1:53 pm 13:53 Cloudy with Rain 52 11.1 50 10 93 93 N 10 17 29.91 1013 6 10 0.02 0.51
2:19 pm 14:19 Cloudy with Light Rain 52 11.1 51 10.6 97 97 NNE 16 26 29.91 1013 7 11 0.04 1.02
2:26 pm 14:26 Cloudy with Light Rain 52 11.1 51 10.6 97 97 NNE 15 24 29.91 1013 10 16 0.04 1.02
2:36 pm 14:36 Cloudy 52 11.1 50 10 93 93 NNE 16 26 29.91 1013 10 16 0.04 1.02
2:44 pm 14:44 Cloudy 51 10.6 50 10 96 96 NE 15 24 29.91 1013 10 16 0.04 1.02
2:53 pm 14:53 Cloudy 51 10.6 49 9.4 92 92 NNE 15 24 29.87 1012 10 16 0.04 1.02
3:04 pm 15:04 Cloudy 52 11.1 50 10 93 93 N 14 22 29.94 1014 10 16 0.00 0.00
3:23 pm 15:23 Cloudy 51 10.6 49 9.4 92 92 NNE 14 22 29.94 1014 10 16 0.00 0.00
3:42 pm 15:42 Cloudy with Light Rain 51 10.6 48 8.9 89 89 NNE 18 30 29.94 1014 10 16 0.01 0.25
3:53 pm 15:53 Cloudy 51 10.6 48 8.9 89 89 NNE 16 26 29.89 1012 10 16 0.01 0.25
4:33 pm 16:33 Cloudy 50 10 48 8.9 93 93 NE 16 26 29.91 1013 10 16 0.01 0.25
4:53 pm 16:53 Cloudy 50 10 47 8.3 89 89 NNE 16 26 29.88 1012 10 16 0.01 0.25
5:09 pm 17:09 Cloudy 50 10 46 7.8 86 86 NNE 16 26 29.97 1015 10 16 0.00 0.00
5:36 pm 17:36 Cloudy 50 10 46 7.8 86 86 NNE 15 24 30.00 1016 10 16 0.00 0.00
5:53 pm 17:53 Cloudy with Rain 49 9.4 46 7.8 90 90 N 15 24 29.97 1015 7 11 0.00 0.03
6:01 pm 18:01 Cloudy with Rain 49 9.4 46 7.8 90 90 NNW 16 26 30.03 1017 5 8 0.02 0.51
6:19 pm 18:19 Cloudy with Light Rain 48 8.9 46 7.8 93 93 NE 13 20 30.00 1016 6 10 0.06 1.52
6:53 pm 18:53 Mostly Cloudy 48 8.9 46 7.8 93 93 NNE 13 20 29.91 1013 10 16 0.06 1.52
7:53 pm 19:53 Mostly Clear 47 8.3 44 6.7 90 90 NNW 8 13 29.99 1016 10 16 0.00 0.00
8:53 pm 20:53 Cloudy 48 8.9 45 7.2 89 89 NNW 8 13 30.02 1017 10 16 0.00 0.00
9:53 pm 21:53 Cloudy 48 8.9 44 6.7 86 86 NNW 7 11 30.01 1016 10 16 0.00 0.00
10:53 pm 22:53 Mostly Cloudy 47 8.3 43 6.1 86 86 NW 10 17 30.03 1017 10 16 0.00 0.00
11:53 pm 23:53 Mostly Cloudy 46 7.8 42 5.6 86 86 NW 7 11 30.02 1017 10 16 0.00 0.00

Powered by AerisWeather